Torna al catalogo

QIANFAN-99

AttivoComunicazioniPO
NORAD 66041·PAYLOAD·🇨🇳 China

Lanciato Oct 17, 2025 da Taiyuan Satellite Launch Center

Loading…

Prossimi Passaggi (prossime 24 ore)

TLE

AggiornatoSource: Space-Track

Epoca: Sep 14, 2026, 08:05 UTC

1 66041U 25233J   26257.33712505  .00000085  00000-0  11364-3 0  9991
2 66041  89.0052  34.1814 0001458 100.8097 259.3219 13.51035031 45223

Traccia QIANFAN-99 in tempo reale con AllMySat

Download on the App Store